AO-07 1 07530U 74089B 20303.55647895 -.00000037 00000-0 50158-4 0 9994 2 07530 101.8195 272.6320 0012458 104.9731 005.7752 12.53645865102799 UO-11 1 14781U 84021B 20303.74496102 .00000146 00000-0 23943-4 0 9993 2 14781 97.5906 309.0404 0009806 115.8076 244.4151 14.83203782972737 LO-19 1 20442U 90005G 20303.57726565 -.00000013 00000-0 11661-4 0 9991 2 20442 098.7076 251.3682 0012701 117.5094 242.7382 14.32964642607761 HUBBLE 1 20580U 90037B 20303.71276087 .00000592 00000-0 24991-4 0 9995 2 20580 28.4686 151.6203 0002834 97.3006 340.3924 15.09460463476359 MET-2/21 1 22782U 93055A 20303.57396576 .00000043 00000-0 25555-4 0 9992 2 22782 082.5455 127.1598 0021664 216.6574 201.7821 13.83829601371592 AO-27 1 22825U 93061C 20303.56592604 .00000009 00000-0 21574-4 0 9995 2 22825 098.9264 309.4143 0008264 354.1045 006.0038 14.30095943412984 IO-26 1 22826U 93061D 20303.52085673 .00000010 00000-0 21677-4 0 9991 2 22826 098.9204 309.3001 0008581 341.2785 018.8080 14.30432708413210 FO-29 1 24278U 96046B 20303.52408896 -.00000058 00000-0 -23168-4 0 9997 2 24278 098.5892 035.8399 0350832 027.8746 334.0712 13.53099711195013 NOAA-15 1 25338U 98030A 20303.80337357 .00000055 00000-0 41601-4 0 9991 2 25338 98.7075 328.1091 0009630 228.0990 131.9369 14.25995939168374 GO-32 1 25397U 98043D 20303.46874656 -.00000011 00000-0 14623-4 0 9997 2 25397 098.7410 244.0143 0002103 056.6623 303.4756 14.23693243158626 ISS 1 25544U 98067A 20303.99666045 .00001877 00000-0 41722-4 0 9996 2 25544 51.6466 41.4181 0001703 73.2175 93.5352 15.49353834252916 NO-44 1 26931U 01043C 20303.33094325 -.00000002 00000-0 31163-4 0 9997 2 26931 067.0501 156.9063 0006793 276.0649 083.9678 14.30592283996227 SO-50 1 27607U 02058C 20303.41730594 .00000041 00000-0 26214-4 0 9992 2 27607 064.5555 324.7826 0032786 129.0565 231.3463 14.75671885960481 CO-55 1 27844U 03031E 20303.80223003 .00000073 00000-0 52357-4 0 9994 2 27844 98.6831 309.5159 0010402 32.1573 328.0238 14.22264084899232 CO-57 1 27848U 03031J 20303.79767526 .00000057 00000-0 45716-4 0 9992 2 27848 98.6895 310.0776 0010478 44.1415 316.0597 14.21847635899063 RS-22 1 27939U 03042A 20303.76530204 .00000177 00000-0 40279-4 0 9995 2 27939 98.1100 76.9532 0011641 290.7149 69.2812 14.66899498913700 NOAA-18 1 28654U 05018A 20303.74761152 .00000109 00000-0 83762-4 0 9990 2 28654 99.0284 1.3289 0013892 209.3116 150.7278 14.12550715795964 CO-58 1 28895U 05043F 20303.32450966 .00000191 00000-0 45528-4 0 9996 2 28895 098.0292 076.0818 0016101 215.1110 144.9032 14.63815029800194 Falconsat-3 1 30776U 07006E 20303.26539628 .00004784 00000-0 12407-3 0 9995 2 30776 35.4335 143.5260 0003571 308.5096 51.5310 15.38478566757452 CO-65 1 32785U 08021C 20303.37466011 .00000359 00000-0 44176-4 0 9995 2 32785 097.5864 285.5932 0014244 053.2625 306.9898 14.88539670677798 AAUSAT2 1 32788U 08021F 20303.57164875 .00000528 00000-0 52935-4 0 9993 2 32788 097.4960 302.1465 0010957 332.8237 027.2409 14.95200928679350 DO-64 1 32789U 08021G 20303.58153953 .00002051 00000-0 13691-3 0 9998 2 32789 097.4052 341.6196 0011276 208.9841 151.0763 15.08049170682023 CO-66 1 32791U 08021J 20303.41153760 .00000454 00000-0 51088-4 0 9997 2 32791 097.5513 291.7210 0013841 022.4953 337.6870 14.91145920678346 RS-30 1 32953U 08025A 20303.80429278 .00000037 00000-0 19437-3 0 9992 2 32953 82.5056 194.3616 0019548 118.1405 242.1653 12.43098738564325 PRISM 1 33493U 09002B 20303.79525550 .00001259 00000-0 11423-3 0 9990 2 33493 98.1566 249.7470 0014321 335.5048 24.5491 14.97197746639818 NOAA-19 1 33591U 09005A 20303.76128519 .00000030 00000-0 41645-4 0 9999 2 33591 99.1962 312.6094 0014808 61.4761 298.7898 14.12436633604352 TISAT-1 1 36799U 10035E 20303.75443327 .00000478 00000-0 53919-4 0 9996 2 36799 98.2024 119.2864 0011025 247.9262 112.0785 14.91461380559148 JUGNU 1 37839U 11058B 20303.36467700 .00000333 00000-0 35722-4 0 9998 2 37839 19.9599 190.6668 0018948 65.0670 92.3486 14.12692981467859 SRMSAT 1 37841U 11058D 20303.56398273 .00000305 00000-0 22422-4 0 9993 2 37841 019.9719 256.5640 0011652 276.9488 238.9913 14.10677455467099 AO-71 1 37854U 11061E 20303.37385190 .00001380 00000-0 76150-4 0 9995 2 37854 101.7142 103.8455 0157302 023.4364 337.3918 15.07647231491656 HRBE 1 37855U 11061F 20303.40637250 .00001323 00000-0 72102-4 0 9997 2 37855 101.7269 100.9830 0169844 037.2836 324.0025 15.06681574491371 HORYU-2 1 38340U 12025D 20303.71912059 .00000250 00000-0 44310-4 0 9993 2 38340 98.2653 0.4007 0010823 338.3901 21.6849 14.75908516454767 RS-40 1 38735U 12041C 20303.43025458 .00000055 00000-0 32900-3 0 9990 2 38735 082.4727 277.1137 0014480 233.0121 126.9623 12.42581222374490 BEESAT-3 1 39135U 13015F 20303.41399497 .00001609 00000-0 86857-4 0 9999 2 39135 064.8660 228.6938 0025854 221.0786 138.8395 15.18465713415559 BEESAT-2 1 39136U 13015G 20303.77879052 .00001849 00000-0 99366-4 0 9994 2 39136 64.8772 232.9807 0034994 266.0398 93.6728 15.17874698415890 ZACUBE-1 1 39417U 13066B 20303.51820302 .00000263 00000-0 39250-4 0 9993 2 39417 097.5739 294.1435 0058290 196.9256 163.0015 14.81341715374887 TRITON-1 1 39427U 13066M 20303.82066604 .00000433 00000-0 76508-4 0 9991 2 39427 97.7434 257.4010 0113942 9.0596 351.2629 14.68073180371578 GOMX-1 1 39430U 13066Q 20303.43120051 .00000232 00000-0 50362-4 0 9996 2 39430 097.7985 233.9126 0151846 122.2146 239.3873 14.59454167369341 LO-74 1 39440U 13066AA 20303.51052127 .00000291 00000-0 47435-4 0 9996 2 39440 097.6466 278.7096 0078544 265.0034 094.2207 14.76079645372350 AO-73 1 39444U 13066AE 20303.70831919 .00000357 00000-0 49866-4 0 9998 2 39444 97.5669 296.6209 0057607 187.7788 172.2538 14.82209054373841 SPROUT 1 39770U 14029E 20303.78790877 .00000856 00000-0 99441-4 0 9993 2 39770 97.9049 49.5656 0008016 242.9586 117.0807 14.87931574349034 DUCHIFAT-1 1 40021U 14033M 20303.77235253 .00000743 00000-0 80931-4 0 9999 2 40021 97.9494 235.8729 0012139 199.2176 160.8585 14.91019536345901 NANOSATCBR1 1 40024U 14033Q 20303.80362397 .00000513 00000-0 58893-4 0 9993 2 40024 97.9320 231.8336 0011372 203.8337 156.2355 14.90171690345768 DTUSAT-2 1 40030U 14033W 20303.77431532 .00000357 00000-0 44155-4 0 9996 2 40030 97.9036 225.2361 0011008 207.8893 152.1734 14.88788795345506 EO-80 1 40032U 14033Y 20303.79769165 .00000425 00000-0 51428-4 0 9993 2 40032 97.9044 225.2629 0010954 208.8234 151.2379 14.88740743345497 ANTELSAT 1 40034U 14033AA 20303.58187795 .00000291 00000-0 50363-4 0 9993 2 40034 97.6974 152.7434 0057285 285.7790 73.7107 14.74319360342176 VELOX-1 1 40057U 14034E 20303.75722137 .00000419 00000-0 65838-4 0 9998 2 40057 98.2990 84.5611 0012005 77.6724 282.5831 14.77957719341476 DAURIA DX 1 1 40071U 14037C 20303.79621578 .00000139 00000-0 25349-4 0 9990 2 40071 98.4618 129.6713 0009613 68.4559 291.7673 14.81404297341143 HODOYOSHI-1 1 40299U 14070B 20303.79318988 .00001072 00000-0 46709-4 0 9997 2 40299 97.3121 17.3442 0014661 83.0931 64.7200 15.24236130332275 CHUBUSAT-1 1 40300U 14070C 20303.81665860 .00001286 00000-0 57839-4 0 9990 2 40300 97.2734 8.8699 0021054 99.0937 38.0081 15.22692202331952 QSAT-EOS 1 40301U 14070D 20303.78584832 .00003041 00000-0 11502-3 0 9993 2 40301 97.2820 15.1074 0026455 73.4095 51.7675 15.27393288332430 FIREBIRD FU3 1 40377U 15003B 20303.19967149 .00004413 00000-0 16919-3 0 9995 2 40377 099.0861 030.7308 0121687 226.8812 132.2191 15.20585150317621 FIREBIRD FU4 1 40378U 15003C 20303.51136310 .00003902 00000-0 14993-3 0 9992 2 40378 099.0865 031.2147 0121893 225.6853 133.4333 15.20608284317674 GRIFEX 1 40379U 15003D 20303.48127450 .00002167 00000-0 93287-4 0 9990 2 40379 099.0900 022.2853 0130824 253.6176 105.0636 15.16782735317155 NO-84 1 40654U 15025D 20302.38566901 .00031194 00000-0 32056-3 0 827 2 40654 54.9854 46.5646 0107371 172.4515 187.8061 15.57671956189710 DEORBITSAIL 1 40719U 15032E 20303.56584224 .00000516 00000-0 80059-4 0 9994 2 40719 097.8513 188.7783 0017091 130.7882 229.4815 14.77104613285892 NUDT-PHONESAT 1 40900U 15049B 20303.83318580 .00003494 00000-0 14415-3 0 9994 2 40900 97.4302 313.6580 0011063 225.1232 259.7384 15.24667712283668 XW-2A 1 40903U 15049E 20303.79192675 .00003483 00000-0 79077-4 0 9991 2 40903 97.2728 352.7562 0014142 129.8523 4.8881 15.43630261287192 XW-2C 1 40906U 15049H 20303.82365832 .00000927 00000-0 51343-4 0 9991 2 40906 97.4820 303.2386 0013012 268.4091 214.8496 15.16240733282618 XW-2D 1 40907U 15049J 20303.86114765 .00001303 00000-0 70265-4 0 9996 2 40907 97.4807 303.0056 0012308 264.5072 214.6465 15.16497542282648 LILACSAT-2 1 40908U 15049K 20303.87107822 .00000827 00000-0 48939-4 0 9997 2 40908 97.4973 301.1832 0014176 278.1461 199.2701 15.14144835282331 XW-2E 1 40909U 15049L 20303.78569505 .00001574 00000-0 79043-4 0 9998 2 40909 97.4669 306.6240 0011789 252.6211 280.7487 15.18706088282913 XW-2F 1 40910U 15049M 20303.77973697 .00001534 00000-0 78205-4 0 9995 2 40910 97.4719 305.6978 0012896 251.1454 282.4123 15.18213190282712 XW-2B 1 40911U 15049N 20303.85173936 .00001141 00000-0 62088-4 0 9999 2 40911 97.4813 303.6939 0012276 265.6766 213.2931 15.16419863282533 DCBB 1 40912U 15049P 20303.81566061 .00001885 00000-0 88909-4 0 9996 2 40912 97.4494 310.0015 0013442 224.2875 260.1922 15.20643148283132 TW-1C 1 40926U 15051B 20303.71111558 .00057894 00000-0 41873-3 0 9999 2 40926 97.0668 356.8117 0002939 300.0035 187.2508 15.73309634288071 TW-1A 1 40928U 15051D 20303.78281170 .00005088 00000-0 11554-3 0 9997 2 40928 97.1011 328.3304 0011963 63.3779 54.4775 15.43396717286084 IO-86 1 40931U 15052B 20303.75711726 .00000633 00000-0 -10597-5 0 9994 2 40931 5.9964 97.5794 0013737 17.3970 342.7406 14.76647010275142 LQSat 1 40958U 15057A 20303.40380414 .00000048 00000-0 14942-4 0 9992 2 40958 097.8377 002.3077 0019497 080.5755 279.7656 14.73135637272236 ATHENOXAT-1 1 41168U 15077C 20301.82496949 .00002961 00000-0 11862-3 0 9996 2 41168 14.9875 170.0063 0011199 172.3778 256.7104 15.14685293269443 ChubuSat-2 1 41338U 16012B 20303.42751618 .00000477 00000-0 30287-4 0 9993 2 41338 031.0026 214.7778 0013619 003.5840 356.4891 15.00354062257870 ChubuSat-3 1 41339U 16012C 20303.87333073 .00000465 00000-0 29284-4 0 9996 2 41339 31.0124 209.4211 0013486 15.2865 344.8195 15.00514898257943 Horyu-4 1 41340U 16012D 20302.98292741 .00000729 00000-0 48226-4 0 9995 2 41340 031.0042 201.3715 0013688 034.0064 326.1447 15.01598081257960 OUFTI-1 1 41458U 16025C 20303.60314894 .00003428 00000-0 17082-3 0 9997 2 41458 098.1186 061.4064 0163326 117.7430 244.0469 15.07347601247682 e-st@r-II 1 41459U 16025D 20303.82177634 .00003348 00000-0 16863-3 0 9998 2 41459 98.1152 60.9365 0164557 119.3311 242.4501 15.06867245247675 AAUSAT4 1 41460U 16025E 20303.81298314 .00005212 00000-0 25150-3 0 9999 2 41460 98.1154 63.7578 0152831 106.6817 255.1260 15.09382058247904 LO-87 1 41557U 16033B 20303.76529204 .00002250 00000-0 84042-4 0 9999 2 41557 97.4010 33.1240 0012755 339.3324 137.0414 15.28360306246281 NuSat2 1 41558U 16033C 20303.82334236 .00002514 00000-0 88038-4 0 9998 2 41558 97.4083 36.0022 0011661 335.2594 177.4579 15.30382613246436 Lapan A3 1 41603U 16040E 20303.59266917 .00000342 00000-0 18963-4 0 9998 2 41603 097.2929 352.8124 0015138 091.9700 050.8450 15.19891164241513 Swayam 1 41607U 16040J 20303.10889722 .00002426 00000-0 10090-3 0 9991 2 41607 97.3028 359.2410 0014639 77.7397 282.5479 15.24630536241780 Pratham 1 41783U 16059A 20303.58582158 .00000078 00000-0 24271-4 0 9999 2 41783 098.0005 355.1601 0032296 253.0275 106.7386 14.63082116218491 AlSat 1N 1 41789U 16059G 20303.76060397 .00000090 00000-0 25849-4 0 9997 2 41789 98.0046 358.4658 0027157 238.3580 121.4964 14.64352476218682 ScatSat 1 41790U 16059H 20303.46078561 -.00000103 00000-0 -14639-4 0 9990 2 41790 98.4012 340.1975 0004485 213.9980 146.1594 14.50791107216654 TY-1 1 41844U 16066D 20303.75771852 .00001359 00000-0 57129-4 0 9996 2 41844 97.4046 310.4431 0013516 226.5398 243.8994 15.25083906220732 Pegasus-1 1 41846U 16066F 20303.73798741 .00000428 00000-0 74945-4 0 9993 2 41846 98.6461 355.0977 0366526 193.0698 166.0793 14.37846110208264 CAS-2T 1 41847U 16066G 20303.42080607 .00000163 00000-0 34998-4 0 9995 2 41847 098.6380 355.1785 0365496 189.4787 169.9375 14.38103516208676 EO-88 1 42017U 17008BX 20303.45567598 .00002490 00000-0 97001-4 0 9993 2 42017 097.3471 008.9913 0005644 192.6993 167.4105 15.26900556205993 CAS-4B 1 42759U 17034B 20303.65488794 .00000534 00000-0 45771-4 0 9991 2 42759 43.0195 9.6607 0009313 162.5123 328.5005 15.09924773186257 CAS-4A 1 42761U 17034D 20303.65926021 .00000566 00000-0 47629-4 0 9993 2 42761 43.0197 8.8484 0009835 164.1045 332.0299 15.10004435186257 UCLSat 1 42765U 17036A 20303.39370807 .00002104 00000-0 90084-4 0 9998 2 42765 097.2855 353.9421 0009441 274.5863 085.4296 15.23844958186976 NIUSat 1 42766U 17036B 20303.40685514 .00001534 00000-0 70093-4 0 9999 2 42766 097.2846 351.0536 0013619 269.1216 090.8460 15.21966269186068 LituanicaSAT 2 1 42768U 17036D 20303.57697586 .00003263 00000-0 13491-3 0 9990 2 42768 097.2919 354.3256 0012711 261.1880 098.7919 15.24607815186278 Aalto 1 1 42775U 17036L 20303.57872742 .00001186 00000-0 54752-4 0 9995 2 42775 097.2825 351.5489 0012058 267.6856 092.3000 15.22047055186078 URSA MAIOR 1 42776U 17036M 20303.41972529 .00001418 00000-0 64509-4 0 9992 2 42776 097.2837 351.7394 0011853 267.8663 092.1216 15.22251167186066 Max Valier Sat 1 42778U 17036P 20303.39844102 .00001547 00000-0 68921-4 0 9991 2 42778 097.2897 353.2299 0010405 270.7185 089.2860 15.22865413186112 Pegasus 1 42784U 17036V 20303.77531694 .00001792 00000-0 77891-4 0 9997 2 42784 97.2855 353.9466 0010053 274.5778 85.4311 15.23514387186228 NUDATSat 1 42787U 17036Y 20303.57994190 .00002918 00000-0 11976-3 0 9994 2 42787 097.2895 355.4791 0009232 269.1233 090.8948 15.24976424186137 SUCHAI 1 1 42788U 17036Z 20303.09238294 .00002192 00000-0 92973-4 0 9999 2 42788 97.2870 354.0016 0009544 274.7333 85.2815 15.24118943186231 SKCUBE 1 42789U 17036AA 20303.41589845 .00002129 00000-0 90867-4 0 9997 2 42789 097.2863 354.1250 0009426 273.8927 086.1233 15.23937741186196 VZLUSAT 1 1 42790U 17036AB 20303.37360099 .00002875 00000-0 11812-3 0 9992 2 42790 097.2892 355.2704 0008916 270.4037 089.6179 15.24953128186256 VENTA 1 1 42791U 17036AC 20303.45762497 .00001997 00000-0 85491-4 0 9999 2 42791 097.2861 354.1995 0009100 274.4315 085.5883 15.23910988186198 Robusta 1B 1 42792U 17036AD 20303.41812248 .00002210 00000-0 93637-4 0 9996 2 42792 097.2866 354.4219 0009006 274.1654 085.8554 15.24143042186226 D-SAT 1 42794U 17036AF 20303.76989647 .00000390 00000-0 39317-4 0 9996 2 42794 97.4827 329.7003 0124489 276.6986 82.0079 14.91348398182716 TechnoSat 1 42829U 17042E 20303.62763410 .00000196 00000-0 25020-4 0 9995 2 42829 97.4980 178.9531 0013741 191.6964 168.3938 14.91150252179285 QIKCOM-1 1 42983U 98067NF 20303.39879109 .00007475 00000-0 87234-4 0 9991 2 42983 51.6390 349.7716 0002954 193.3682 166.7234 15.62773595171223 AO-91 1 43017U 17073E 20303.75101008 .00001410 00000-0 11472-3 0 9997 2 43017 97.7152 210.7560 0255971 333.0346 25.7751 14.79100807159010 EcAMSat 1 43019U 98067NG 20303.78921291 .00016306 00000-0 14440-3 0 9996 2 43019 51.6409 328.4691 0002390 179.3471 180.7530 15.68771822253868 PICSAT 1 43132U 18004X 20303.47108874 .00002183 00000-0 90976-4 0 9992 2 43132 097.4360 013.9271 0008055 308.2996 051.7517 15.24769260155472 AO-92 1 43137U 18004AC 20303.47260480 .00001676 00000-0 71311-4 0 9997 2 43137 097.4339 013.6539 0007773 311.5718 048.4852 15.24395388155462 TianYi 2 1 43155U 18008A 20303.85106691 .00001499 00000-0 91088-4 0 9992 2 43155 97.4341 9.4317 0018616 48.9668 62.3445 15.11832398153223 Zhou Enlai 1 43156U 18008B 20303.85479774 .00001697 00000-0 10400-3 0 9996 2 43156 97.4383 9.2752 0015769 48.7082 62.5501 15.11398364153174 TianYi 6 1 43158U 18008D 20303.78377236 .00001397 00000-0 87455-4 0 9992 2 43158 97.4324 8.0941 0014937 46.7176 73.0303 15.10911621153102 S-Net D 1 43186U 18014G 20303.74815287 .00000566 00000-0 54332-4 0 9994 2 43186 97.6842 209.3322 0012141 130.3791 229.8492 14.96870801149783 S-Net B 1 43187U 18014H 20303.48061221 .00000528 00000-0 51059-4 0 9998 2 43187 097.6839 209.0438 0012127 131.1843 229.0426 14.96870019149742 S-Net A 1 43188U 18014J 20303.74788532 .00000561 00000-0 53881-4 0 9991 2 43188 97.6842 209.3414 0012140 130.4007 229.8276 14.96870291149780 S-Net C 1 43189U 18014K 20303.74836607 .00000579 00000-0 55452-4 0 9994 2 43189 97.6839 209.3012 0012142 130.2720 229.9566 14.96869641148333 FMN 1 1 43192U 18015A 20303.90280341 .00003674 00000-0 14464-3 0 9991 2 43192 97.4598 72.9303 0014699 340.7764 135.4570 15.26174313152407 Shaonian Xing 1 43199U 18015H 20303.76107122 .00002687 00000-0 10647-3 0 9999 2 43199 97.4387 70.6972 0016275 351.3466 147.7702 15.26182506152446 UBAKUSAT 1 43467U 98067NQ 20303.71344855 .00105099 00000-0 39572-3 0 9992 2 43467 51.6317 306.3624 0003367 56.0322 304.1002 15.86968208141335 EQUISat 1 43552U 98067PA 20303.43181804 .00114692 00000-0 45377-3 0 9998 2 43552 051.6284 315.8217 0002152 006.9973 353.1061 15.85920832131375 UiTMSat 1 1 43589U 98067PD 20303.45330037 .00279008 42804-4 60282-3 0 9991 2 43589 051.6283 308.1878 0004915 042.0821 318.0564 15.97897103127217 Maya 1 1 43590U 98067PE 20303.25698221 .00286996 44620-4 62350-3 0 9993 2 43590 51.6227 309.0478 0004888 43.5487 316.5907 15.97792817127115 Bhutan 1 1 43591U 98067PF 20303.39304862 .00300004 48247-4 61897-3 0 9995 2 43591 051.6290 307.8727 0004991 044.7462 315.3949 15.98703756127141 SiriusSat 1 1 43595U 98067PG 20302.49657849 .00065751 00000-0 23108-3 0 9996 2 43595 51.6324 322.0817 0005476 32.4770 329.4740 15.88529845126055 SiriusSat 2 1 43596U 98067PH 20303.76151473 .00126192 00000-0 43069-3 0 9995 2 43596 51.6144 316.3474 0004639 70.5983 289.6050 15.88871039126247 SurfSat 1 43614U 18070B 20303.50319584 .00004480 00000-0 11244-3 0 9998 2 43614 093.0297 210.1009 0015162 167.6135 192.5495 15.39935156119101 CP-7 DAVE 1 43615U 18070C 20303.35381838 .00004516 00000-0 11403-3 0 9990 2 43615 093.0300 210.0205 0015311 168.0043 192.1580 15.39747117119078 ELFIN-B 1 43616U 18070D 20303.26462538 .00007467 00000-0 17811-3 0 9995 2 43616 093.0259 209.9771 0015470 168.7443 191.4161 15.41443909119122 ELFIN-A 1 43617U 18070E 20303.27899686 .00007715 00000-0 18246-3 0 9994 2 43617 093.0313 210.6100 0015083 164.8318 195.3393 15.41703502119136 STARS-Me Mother 1 43640U 98067PQ 20303.49886667 .00027594 00000-0 22929-3 0 9993 2 43640 051.6348 346.4638 0001996 163.5650 196.5413 15.69942155117758 CubeBel 1 1 43666U 18083E 20303.61707155 .00001639 00000-0 82600-4 0 9994 2 43666 097.4817 328.7110 0013215 251.4968 233.1759 15.18521538110979 Changshagaoxin 1 43669U 18083H 20303.56626878 .00001115 00000-0 58953-4 0 9996 2 43669 097.4693 326.4432 0009283 244.2881 234.3482 15.17494677110866 Ten-Koh 1 43677U 18084G 20303.77235743 .00000133 00000-0 19526-4 0 9998 2 43677 97.8975 60.6255 0017398 76.9987 283.3172 14.90335261108944 PO-101 1 43678U 18084H 20303.77101202 .00000469 00000-0 52339-4 0 9992 2 43678 97.8987 62.2869 0011395 92.6808 267.5733 14.91666241109040 IRVINE 01 1 43693U 18088D 20303.58101148 .00003389 00000-0 13973-3 0 9995 2 43693 085.0360 348.1976 0018808 150.7906 209.4393 15.23503158109261 QO-100 1 43700U 18090A 20303.57844479 .00000145 00000-0 00000-0 0 9998 2 43700 000.0146 229.9113 0002100 011.9426 030.5252 01.00271563007054 Reaktor Hello World 1 43743U 18096AA 20303.45451657 .00001995 00000-0 76066-4 0 9993 2 43743 097.4109 016.5924 0018132 019.6953 340.4983 15.27742390106859 MinXSS-2 1 43758U 18099A 20303.46476298 .00000570 00000-0 56187-4 0 9991 2 43758 097.6946 013.1392 0016957 101.3705 258.9422 14.95765834103989 AO-95 1 43770U 18099N 20303.43529915 .00000245 00000-0 27491-4 0 9992 2 43770 097.6940 012.3969 0015995 108.2075 252.0889 14.95077519103938 RANGE-B 1 43772U 18099Q 20303.77212030 .00000365 00000-0 38265-4 0 9992 2 43772 97.7014 13.3965 0015613 95.6946 264.6056 14.95297228103984 RANGE-A 1 43773U 18099R 20303.42881663 .00000294 00000-0 32051-4 0 9997 2 43773 097.6880 011.9252 0015089 096.5297 263.7642 14.95033903103927 MOVE-II 1 43780U 18099Y 20303.74703961 .00001256 00000-0 11823-3 0 9996 2 43780 97.6947 13.0101 0015050 105.4171 254.8714 14.95536315103986 SNUSat 2 1 43782U 18099AA 20303.77438440 .00000034 00000-0 82386-5 0 9995 2 43782 97.6936 12.9894 0014192 94.8560 265.4282 14.95337713103992 SnugLite 1 43784U 18099AC 20303.19835633 .00000586 00000-0 58067-4 0 9998 2 43784 097.6898 012.2127 0016527 104.3254 255.9803 14.95440568103923 ITASat 1 1 43786U 18099AE 20303.73692707 .00000624 00000-0 61513-4 0 9996 2 43786 97.6955 13.2084 0016640 101.8794 258.4294 14.95401793104008 EAGLET 1 1 43790U 18099AJ 20303.76171842 .00000526 00000-0 52186-4 0 9993 2 43790 97.6947 13.5467 0015052 104.8925 255.3964 14.95786990103720 ESEO 1 43792U 18099AL 20303.78336400 -.00000240 00000-0 -16433-4 0 9990 2 43792 97.6914 13.3206 0014651 102.0867 258.1997 14.95635721103782 CSIM 1 43793U 18099AM 20303.44900602 .00000380 00000-0 38769-4 0 9994 2 43793 097.6923 013.0754 0014283 101.0636 259.2193 14.96189950103725 Astrocast 0.1 1 43798U 18099AS 20303.73720924 .00000659 00000-0 63865-4 0 9992 2 43798 97.6942 13.6501 0013881 87.5365 272.7445 14.95933086104027 JO-97 1 43803U 18099AX 20303.46729768 .00000655 00000-0 63984-4 0 9992 2 43803 097.6915 012.7324 0016591 102.9965 257.3110 14.95595375103961 Suomi 100 1 43804U 18099AY 20303.46930274 .00000696 00000-0 67773-4 0 9994 2 43804 097.6913 012.7167 0016678 103.0625 257.2459 14.95580023103976 Al Farabi 2 1 43805U 18099AZ 20303.83325723 .00001087 00000-0 10246-3 0 9990 2 43805 97.6928 13.1977 0016953 101.8592 258.4490 14.95732215104030 PWSat 2 1 43814U 18099BJ 20303.47785637 .00069448 00000-0 31130-2 0 9993 2 43814 097.7942 027.6757 0004701 137.4303 222.7297 15.20938408104025 CHOMPTT 1 43855U 18104G 20303.46632820 .00001734 00000-0 71435-4 0 9997 2 43855 085.0355 086.5196 0015256 279.7286 080.2233 15.23206998103926 ISAT 1 43879U 18111D 20303.84732447 .00001060 00000-0 98587-4 0 9998 2 43879 97.6916 209.0410 0013525 147.3400 212.8617 14.96348782 98569 UWE-4 1 43880U 18111E 20303.27072642 .00000392 00000-0 39453-4 0 9995 2 43880 097.6934 208.8192 0012763 152.6056 207.5841 14.96582118100505 Sparrow 1 43881U 18111F 20303.51665489 .00000076 00000-0 11707-4 0 9991 2 43881 097.6948 209.1527 0012920 148.3711 211.8290 14.96631854100544 Lume 1 1 43908U 18111AJ 20303.35054031 .00002018 00000-0 82402-4 0 9996 2 43908 097.2511 199.2477 0022146 033.7992 326.4652 15.25319311102437 FO-98 1 43933U 19003B 20303.09865931 .00001124 00000-0 51470-4 0 9993 2 43933 097.2145 347.6133 0019157 127.7772 232.5204 15.22304672098866 FO-99 1 43937U 19003F 20303.58708568 .00001964 00000-0 81492-4 0 9992 2 43937 097.2110 349.7167 0025541 109.2492 251.1512 15.24715165099078 Delphini 1 1 44030U 98067PW 20303.41611909 .00054036 00000-0 39154-3 0 9993 2 44030 051.6336 351.8915 0001705 297.2979 062.7846 15.72883396099549 MYSat 1 1 44045U 18092F 20303.52168320 .00004277 00000-0 12507-3 0 9990 2 44045 051.6377 110.9941 0011657 090.4844 269.7475 15.37431403095906 AstroCast 0.2 1 44083U 19018F 20303.69982275 .00001204 00000-0 55956-4 0 9995 2 44083 97.4063 2.7881 0014584 65.2760 294.9992 15.21808311 87799 AISTechSat 3 1 44103U 19018AB 20303.78123218 .00001372 00000-0 60494-4 0 9991 2 44103 97.3939 3.1220 0015025 77.2513 61.8274 15.23387336 87880 AISat 1 1 44104U 19018AC 20303.46920389 .00001589 00000-0 52414-4 0 9994 2 44104 097.4516 013.9056 0059431 096.7475 264.0534 15.31305770088317 Raavana-1 1 44329U 98067QE 20303.46830809 .00019780 00000-0 23568-3 0 9990 2 44329 051.6401 020.9950 0004541 136.5163 223.6190 15.61080488077913 Uguisu 1 44330U 98067QF 20303.48950995 .00020638 00000-0 24676-3 0 9998 2 44330 051.6385 021.1005 0004506 135.7422 224.3933 15.60958685077892 NepaliSat-1 1 44331U 98067QG 20303.45948282 .00020415 00000-0 24294-3 0 9991 2 44331 051.6378 020.9019 0004501 139.5813 220.5516 15.61089510077908 Prox-1 1 44339U 19036A 20303.46003757 .00001152 00000-0 22303-3 0 9994 2 44339 024.0012 348.5740 0010620 172.0567 188.0093 14.53181976071633 Oculus-ASR 1 44348U 19036K 20303.20584691 .00014887 00000-0 21700-3 0 9996 2 44348 028.5172 224.6167 0357905 297.0014 059.4464 15.04854982073952 Armadillo 1 44352U 19036P 20303.13341188 .00023264 00000-0 33412-3 0 9997 2 44352 028.5321 216.7340 0341397 308.6962 048.3560 15.08655767073977 NO-104 1 44354U 19036R 20303.44054709 .00014625 00000-0 20899-3 0 9999 2 44354 028.5315 219.1077 0354262 304.5298 052.2330 15.05995851074022 NO-103 1 44355U 19036S 20303.40280907 .00036221 00000-0 48398-3 0 9997 2 44355 028.5299 202.1292 0323766 332.1280 026.2306 15.13786992074193 CP9 1 44360U 19036X 20303.31668100 .00063876 -50791-5 67837-3 0 9991 2 44360 028.5096 176.7715 0293944 014.5957 346.2919 15.24097278074319 Move-IIb 1 44398U 19038N 20303.59133117 .00002550 00000-0 14847-3 0 9996 2 44398 097.5511 263.2454 0026251 028.1497 332.1142 15.12653392072856 SONATE 1 44400U 19038Q 20303.59879543 .00001200 00000-0 73014-4 0 9993 2 44400 097.5543 263.2534 0026154 027.4495 332.8107 15.12100939072847 BeeSat 9 1 44412U 19038AC 20303.44705834 .00001639 00000-0 97259-4 0 9994 2 44412 097.5559 263.2406 0023598 033.5904 326.6817 15.12530180072526 JAISAT-1 1 44419U 19038F 20303.42452863 .00001686 00000-0 98715-4 0 9990 2 44419 097.5559 263.5846 0022405 032.6759 327.5853 15.13014950072857 LightSail-2 1 44420U 19036AC 20303.49481213 .00007266 00000-0 15351-2 0 9991 2 44420 024.0072 340.0532 0014967 140.9372 219.2203 14.57013477069879 Taurus 1 1 44530U 19059C 20303.52681548 .00001775 00000-0 51281-3 0 9997 2 44530 098.5634 025.8785 0016073 119.8073 240.4725 14.45740607059718 Duchifat 3 1 44854U 19089C 20303.57269711 .00000690 00000-0 62036-4 0 9994 2 44854 36.9666 25.6762 0007711 58.3048 301.8448 14.99172651 48437 OPS-SAT 1 44878U 19092F 20303.46143933 .00001565 00000-0 85460-4 0 9997 2 44878 097.4704 124.5124 0012599 250.3907 109.5966 15.15735605047831 TO-108 1 44881U 19093C 20303.80611310 -.00000781 00000-0 -92904-4 0 9991 2 44881 97.9481 18.8720 0014052 325.8211 34.2085 14.81410849 46580 FloripaSat 1 1 44885U 19093G 20303.67802691 .00000347 00000-0 50319-4 0 9994 2 44885 97.9482 19.0236 0014020 336.5958 23.4628 14.82103854 46581 RS-44 1 44909U 19096E 20303.36290903 .00000008 00000-0 -27104-5 0 9999 2 44909 082.5190 266.3245 0216257 273.4895 084.1495 12.79708674039310 SwampSat-2 1 45115U 19071E 20303.58132519 .00025118 00000-0 66232-3 0 9995 2 45115 051.6403 071.5658 0011785 183.5720 176.5182 15.38271955041749 HO-107 1 45119U 19071J 20303.55341907 .00002916 00000-0 98277-4 0 9995 2 45119 051.6429 075.0707 0012213 174.5874 185.5242 15.34084818041701 Phoenix 1 45258U 98067RB 20303.55882999 .00008367 00000-0 14314-3 0 9997 2 45258 051.6423 040.3457 0006049 116.1307 244.0305 15.52158452039297 AztechSat-1 1 45261U 98067RE 20303.52344464 .00019565 00000-0 29961-3 0 9994 2 45261 051.6419 038.6211 0006875 133.8048 226.3513 15.54334278039343 QARMAN 1 45263U 98067RG 20303.56502019 .00014165 00000-0 22777-3 0 9991 2 45263 051.6420 039.6449 0006717 130.3803 229.7775 15.53252249039362 Quetzal 1 1 45598U 98067RL 20303.52522601 .00012098 00000-0 20322-3 0 9994 2 45598 051.6430 041.6321 0002405 225.0119 135.0676 15.52203763028608 BY70-2 1 45857U 20042B 20303.72271526 .00001229 00000-0 18423-3 0 9992 2 45857 98.0043 15.7395 0010485 229.9569 130.0724 14.76391149 17500 UPMSat 2 1 46276U 20061E 20303.44442095 .00000780 00000-0 43897-4 0 9994 2 46276 097.4589 015.5791 0003019 088.1043 272.0536 15.16094144008530 AmicalSat 1 46287U 20061R 20303.47279746 .00000991 00000-0 64828-4 0 9991 2 46287 097.5140 015.5356 0003451 144.8858 215.2600 15.10003655008483 /EX